Weather in Schengen

Luxembourg     49°28′17″N   6°21′55″E
temp.,
°C
wind,
m/s
gust,
m/s
humid.,
%
clouds,
%
prec.,
mm/h
press.,
hPa
HPBL,
m
11 may, tue
tue1123:00+11sw2698100 0.4 1010308
02:00+10ssw2298100 0.6 101145
05:00+10ssw2398100 0.1 1010123
08:00+10ssw1196100 0.2 1010102
11:00+11s1194100 0.1 1009176
14:00+10sw2396100 1.1 1009215
17:00+11sw1194100 0.5 1010118
20:00+11sw1191100 0.8 101022
12 may, wed
wed1223:00+11w51195100 0.9 1012421
02:00+9w51196100 1.4 1013347
05:00+8w379798 0.0 1013209
08:00+8w469312 0.0 1014279
11:00+12w337836 0.4 1013890
14:00+14wsw336870 1.3 10121223
17:00+14w3366100 0.5 10111157
20:00+12wnw228298 1.0 101133
13 may, thu
thu1323:00+8nw00875 0.1 101210
02:00+6ese019033 0.2 101110
05:00+5ssw11925 0.0 101010
08:00+8ssw229135 0.0 1010152
11:00+11wsw568399 0.2 1010815
14:00+11wsw5676100 0.4 10091148
17:00+13w4662100 0.2 10081538
20:00+11wsw4684100 0.4 1008194
14 may, fri
fri1423:00+7wsw2292100 0.1 100920
02:00+6sw1194100 0.1 100911
05:00+5ssw229667 0.0 100915
08:00+7sw239331 0.0 1009195
11:00+12wsw458190 0.3 1009864
14:00+14w457685 1.8 10091137
17:00+14w446931 1.5 10091264
20:00+12wsw23825 2.2 100957
15 may, sat
sat1523:00+8sw11845 0.0 101110
02:00+6wsw11895 0.0 101211
05:00+5sw22935 0.0 101312
08:00+8ssw239424 0.0 1013199
11:00+12sw457993 0.1 1013918
14:00+12sw457599 0.1 1013944
17:00+13sw5672100 0.3 10121211
20:00+11sw478170 0.3 1012348